VK5TRM-14 Weather Reports


Display with metric or nautical units.
time (UTC)temp
F
wind
direction
speed
MPH
gust
MPH
rain 1hr
in
rain 24hr
in
rain mn
in
humidity
%
barometer
mb
20260509031505 61 225 9.0 13.0 0.00 0.00 0.00 67 1028.5
20260509030005 59 225 6.0 8.0 0.00 0.00 0.00 79 1029.0
20260509024505 59 225 6.0 8.0 0.00 0.00 0.00 79 1029.0
20260509023005 59 180 6.0 9.0 0.00 0.00 0.00 77 1029.6
20260509021504 59 180 6.0 9.0 0.00 0.00 0.00 77 1029.6
20260509020005 58 180 7.0 9.0 0.00 0.00 0.00 82 1030.1
20260509014505 58 180 7.0 9.0 0.00 0.00 0.00 82 1030.1
20260509013005 58 202 7.0 9.0 0.00 0.00 0.00 79 1030.0
20260509011505 58 202 7.0 9.0 0.00 0.00 0.00 79 1030.0
20260509010005 58 202 8.0 13.0 0.00 0.00 0.00 79 1030.1
20260509004505 58 202 8.0 13.0 0.00 0.00 0.00 79 1030.1
20260509003005 57 180 8.0 10.0 0.00 0.00 0.00 83 1030.2
20260509001504 57 180 8.0 10.0 0.00 0.00 0.00 83 1030.2
20260509000007 56 180 7.0 8.0 0.00 0.00 0.00 86 1030.2
20260508234505 56 180 7.0 8.0 0.00 0.00 0.00 86 1030.2
20260508233005 56 202 8.0 9.0 0.00 0.00 0.00 88 1030.1
20260508231505 56 202 8.0 9.0 0.00 0.00 0.00 88 1030.1
20260508230005 55 202 8.0 12.0 0.00 0.00 0.00 90 1029.7
20260508224505 55 202 8.0 12.0 0.00 0.00 0.00 90 1029.7
20260508223005 55 202 6.0 7.0 0.00 0.00 0.00 90 1029.4
20260508221505 55 202 6.0 7.0 0.00 0.00 0.00 90 1029.4
20260508220005 54 225 5.0 8.0 0.00 0.00 0.00 90 1029.2
20260508214505 54 225 5.0 8.0 0.00 0.00 0.00 90 1029.2
20260508213004 54 247 7.0 9.0 0.00 0.00 0.00 90 1029.1
20260508211505 54 247 7.0 9.0 0.00 0.00 0.00 90 1029.1
20260508210005 54 202 7.0 8.0 0.00 0.00 0.00 91 1028.8
20260508204505 54 202 7.0 8.0 0.00 0.00 0.00 91 1028.8
20260508203005 54 180 6.0 8.0 0.00 0.00 0.00 90 1028.6
20260508201505 54 180 6.0 8.0 0.00 0.00 0.00 90 1028.6
20260508200005 54 202 8.0 14.0 0.00 0.00 0.00 90 1028.6
20260508194504 54 202 8.0 14.0 0.00 0.00 0.00 90 1028.6
20260508193005 54 225 5.0 6.0 0.00 0.00 0.00 89 1028.4
20260508191505 54 225 5.0 6.0 0.00 0.00 0.00 89 1028.4
20260508190005 54 225 3.0 5.0 0.00 0.00 0.00 89 1028.3
20260508184505 54 225 3.0 5.0 0.00 0.00 0.00 89 1028.3
20260508183006 54 202 5.0 6.0 0.00 0.00 0.00 90 1028.4
20260508181505 54 202 5.0 6.0 0.00 0.00 0.00 90 1028.4
20260508180005 54 202 5.0 7.0 0.00 0.00 0.00 92 1028.6
20260508174505 54 202 5.0 7.0 0.00 0.00 0.00 92 1028.6
20260508173004 54 180 8.0 13.0 0.00 0.00 0.00 93 1028.7
20260508171504 54 180 8.0 13.0 0.00 0.00 0.00 93 1028.7
20260508170004 54 202 8.0 14.0 0.00 0.00 0.00 90 1028.9
20260508164505 54 202 8.0 14.0 0.00 0.00 0.00 90 1028.9
20260508163005 55 202 8.0 12.0 0.00 0.00 0.00 86 1028.8
20260508161505 55 202 8.0 12.0 0.00 0.00 0.00 86 1028.8
20260508160005 56 202 9.0 14.0 0.00 0.00 0.00 85 1028.7
20260508154504 56 202 9.0 14.0 0.00 0.00 0.00 85 1028.7
20260508153005 56 202 13.0 16.0 0.00 0.00 0.00 83 1028.7
20260508151505 56 202 13.0 16.0 0.00 0.00 0.00 83 1028.7
20260508150005 56 225 9.0 13.0 0.00 0.00 0.00 81 1028.7
20260508144505 56 225 9.0 13.0 0.00 0.00 0.00 81 1028.7
20260508143005 56 202 10.0 15.0 0.00 0.00 0.00 79 1028.7
20260508141504 56 202 10.0 15.0 0.00 0.00 0.00 79 1028.7
20260508140005 57 202 9.0 15.0 0.00 0.00 0.00 76 1028.8
20260508134505 57 202 9.0 15.0 0.00 0.00 0.00 76 1028.8
20260508133005 58 202 10.0 15.0 0.00 0.00 0.00 74 1029.0
20260508131505 58 202 10.0 15.0 0.00 0.00 0.00 74 1029.0
20260508130005 58 225 12.0 16.0 0.00 0.00 0.00 71 1029.0
20260508124505 58 225 12.0 16.0 0.00 0.00 0.00 71 1029.0
20260508123005 59 202 14.0 20.0 0.00 0.00 0.00 66 1029.1
20260508121505 59 202 14.0 20.0 0.00 0.00 0.00 66 1029.1
20260508120005 59 202 15.0 18.0 0.00 0.00 0.00 65 1028.9
20260508114504 59 202 15.0 18.0 0.00 0.00 0.00 65 1028.9
20260508113005 60 202 14.0 18.0 0.00 0.00 0.00 64 1028.8
20260508111505 60 202 14.0 18.0 0.00 0.00 0.00 64 1028.8
20260508110005 60 202 14.0 18.0 0.00 0.00 0.00 67 1028.8
20260508104505 60 202 14.0 18.0 0.00 0.00 0.00 67 1028.8
20260508103005 61 202 9.0 13.0 0.00 0.00 0.00 63 1028.7
20260508101504 61 202 9.0 13.0 0.00 0.00 0.00 63 1028.7
20260508100005 61 202 12.0 15.0 0.00 0.00 0.00 61 1028.3
20260508094505 61 202 12.0 15.0 0.00 0.00 0.00 61 1028.3
20260508093005 62 202 10.0 16.0 0.00 0.00 0.00 64 1028.1
20260508091505 62 202 10.0 16.0 0.00 0.00 0.00 64 1028.1
20260508090005 62 202 10.0 15.0 0.00 0.00 0.00 65 1027.8
20260508084505 62 202 10.0 15.0 0.00 0.00 0.00 65 1027.8
20260508083005 63 202 14.0 18.0 0.00 0.00 0.00 66 1027.7
20260508081505 63 202 14.0 18.0 0.00 0.00 0.00 66 1027.7
20260508080004 64 225 12.0 17.0 0.00 0.00 0.00 58 1027.3
20260508074504 64 225 12.0 17.0 0.00 0.00 0.00 58 1027.3
20260508073005 65 225 12.0 20.0 0.00 0.00 0.00 58 1027.2
20260508071505 65 225 12.0 20.0 0.00 0.00 0.00 58 1027.2
20260508070005 65 225 14.0 21.0 0.00 0.00 0.00 60 1027.2
20260508064505 65 225 14.0 21.0 0.00 0.00 0.00 60 1027.2
20260508063005 65 247 14.0 20.0 0.00 0.00 0.00 59 1027.0
20260508061505 65 247 14.0 20.0 0.00 0.00 0.00 59 1027.0
20260508060005 65 202 13.0 17.0 0.00 0.00 0.00 64 1027.2
20260508054505 65 202 13.0 17.0 0.00 0.00 0.00 64 1027.2
20260508053005 64 247 15.0 21.0 0.00 0.00 0.00 65 1027.2
20260508051504 64 247 15.0 21.0 0.00 0.00 0.00 65 1027.2
20260508050004 65 247 13.0 20.0 0.00 0.00 0.00 62 1027.3
20260508044505 65 247 13.0 20.0 0.00 0.00 0.00 62 1027.3
20260508043005 64 247 12.0 18.0 0.00 0.00 0.00 66 1027.7
20260508041505 64 247 12.0 18.0 0.00 0.00 0.00 66 1027.7
20260508040005 64 247 13.0 17.0 0.00 0.00 0.00 65 1028.1
20260508034505 64 247 13.0 17.0 0.00 0.00 0.00 65 1028.1
20260508033005 63 247 13.0 17.0 0.00 0.00 0.00 66 1028.6